QPF
0.11 0.11 0.11 0.10 0.11 0.11 0.11 0.10 0.10 0.08 0.05 0.02 0.01 0.01 0.01 0.01 0.01 0.01 0.01 0.01 0.01 0.01 0.02 0.02 0.02 0.02 0.03 0.03 0.03 0.03 0.03 0.03 0.03 0.02 0.02 0.01 0.01 0.01
0.10 0.10 0.11 0.10 0.11 0.12 0.13 0.14 0.13 0.12 0.08 0.03 0.02 0.02 0.02 0.02 0.02 0.02 0.01 0.01 0.01 0.01 0.02 0.02 0.03 0.03 0.04 0.03 0.03 0.03 0.03 0.02 0.03 0.03 0.02 0.02 0.01 0.01
0.09 0.10 0.10 0.11 0.12 0.12 0.12 0.13 0.13 0.14 0.13 0.07 0.04 0.03 0.04 0.04 0.03 0.03 0.02 0.02 0.02 0.02 0.02 0.03 0.03 0.03 0.03 0.03 0.03 0.03 0.03 0.03 0.02 0.02 0.02 0.02 0.01 0.01
0.08 0.09 0.10 0.10 0.12 0.12 0.13 0.12 0.11 0.10 0.11 0.09 0.06 0.05 0.04 0.04 0.03 0.04 0.03 0.03 0.03 0.03 0.03 0.03 0.03 0.03 0.03 0.03 0.03 0.02 0.02 0.02 0.02 0.02 0.01 0.01 0.01 0.01
0.06 0.07 0.08 0.10 0.12 0.13 0.14 0.14 0.13 0.12 0.11 0.11 0.09 0.07 0.06 0.05 0.05 0.05 0.05 0.05 0.04 0.04 0.04 0.04 0.03 0.03 0.03 0.03 0.03 0.03 0.02 0.02 0.02 0.02 0.02 0.01 0.01 0.01
0.05 0.06 0.06 0.07 0.09 0.11 0.13 0.14 0.14 0.14 0.14 0.14 0.13 0.11 0.09 0.08 0.09 0.09 0.09 0.08 0.07 0.05 0.06 0.06 0.05 0.04 0.04 0.04 0.04 0.03 0.03 0.03 0.02 0.02 0.02 0.01 0.01 0.01
0.06 0.06 0.07 0.08 0.09 0.10 0.12 0.13 0.15 0.16 0.17 0.16 0.14 0.13 0.11 0.10 0.11 0.10 0.10 0.10 0.10 0.09 0.09 0.09 0.08 0.07 0.05 0.05 0.05 0.04 0.04 0.03 0.03 0.02 0.02 0.02 0.01 0.01
0.08 0.08 0.08 0.10 0.11 0.11 0.12 0.13 0.14 0.15 0.16 0.16 0.15 0.13 0.11 0.09 0.09 0.11 0.13 0.14 0.15 0.11 0.09 0.10 0.09 0.09 0.07 0.05 0.06 0.05 0.04 0.04 0.03 0.03 0.02 0.02 0.02 0.01
0.09 0.09 0.09 0.10 0.11 0.10 0.11 0.11 0.12 0.13 0.13 0.13 0.14 0.12 0.10 0.09 0.10 0.13 0.13 0.13 0.10 0.08 0.09 0.12 0.11 0.10 0.07 0.06 0.08 0.07 0.06 0.06 0.05 0.04 0.03 0.03 0.02 0.02
0.06 0.07 0.07 0.08 0.09 0.10 0.10 0.10 0.10 0.11 0.12 0.11 0.11 0.10 0.09 0.10 0.13 0.15 0.15 0.16 0.15 0.13 0.13 0.14 0.13 0.10 0.08 0.07 0.09 0.09 0.08 0.07 0.06 0.05 0.03 0.03 0.02 0.02
0.03 0.03 0.04 0.05 0.07 0.09 0.09 0.09 0.10 0.10 0.12 0.12 0.12 0.12 0.13 0.15 0.16 0.19 0.21 0.23 0.22 0.18 0.13 0.11 0.11 0.10 0.09 0.09 0.10 0.11 0.10 0.09 0.08 0.06 0.04 0.03 0.02 0.02
0.01 0.02 0.03 0.04 0.05 0.06 0.07 0.08 0.09 0.08 0.09 0.10 0.10 0.11 0.11 0.13 0.18 0.18 0.17 0.18 0.18 0.15 0.11 0.09 0.09 0.10 0.13 0.12 0.10 0.10 0.10 0.09 0.08 0.06 0.04 0.03 0.03 0.02
0.01 0.02 0.02 0.03 0.04 0.05 0.06 0.07 0.07 0.08 0.08 0.09 0.10 0.10 0.11 0.12 0.15 0.16 0.17 0.17 0.16 0.14 0.09 0.08 0.10 0.11 0.13 0.12 0.11 0.10 0.09 0.08 0.08 0.07 0.05 0.04 0.03 0.02
0.02 0.02 0.02 0.03 0.04 0.05 0.05 0.06 0.07 0.08 0.08 0.10 0.11 0.11 0.12 0.12 0.13 0.14 0.16 0.17 0.16 0.14 0.11 0.12 0.12 0.12 0.13 0.12 0.11 0.10 0.09 0.08 0.08 0.07 0.06 0.05 0.04 0.03
0.02 0.03 0.03 0.04 0.04 0.05 0.05 0.06 0.07 0.08 0.08 0.08 0.09 0.10 0.10 0.11 0.13 0.16 0.19 0.20 0.20 0.20 0.19 0.18 0.16 0.14 0.14 0.14 0.12 0.09 0.09 0.09 0.08 0.07 0.07 0.06 0.04 0.03
0.02 0.03 0.04 0.04 0.04 0.04 0.05 0.05 0.06 0.07 0.08 0.07 0.07 0.08 0.10 0.12 0.15 0.17 0.20 0.21 0.22 0.22 0.20 0.18 0.17 0.16 0.16 0.14 0.13 0.12 0.10 0.09 0.08 0.07 0.07 0.06 0.05 0.04
0.02 0.02 0.03 0.03 0.04 0.04 0.04 0.05 0.06 0.06 0.07 0.08 0.08 0.08 0.10 0.11 0.13 0.15 0.18 0.20 0.19 0.18 0.17 0.17 0.17 0.17 0.17 0.15 0.14 0.13 0.13 0.12 0.10 0.08 0.07 0.07 0.05 0.04
0.02 0.02 0.02 0.03 0.04 0.05 0.05 0.05 0.06 0.06 0.06 0.07 0.08 0.08 0.09 0.11 0.12 0.13 0.15 0.18 0.18 0.16 0.16 0.17 0.17 0.18 0.18 0.17 0.15 0.12 0.11 0.11 0.10 0.09 0.07 0.06 0.05 0.04
0.02 0.02 0.02 0.02 0.03 0.04 0.05 0.05 0.05 0.05 0.05 0.06 0.07 0.07 0.09 0.11 0.12 0.13 0.14 0.16 0.17 0.17 0.16 0.17 0.17 0.16 0.15 0.13 0.11 0.10 0.09 0.08 0.08 0.08 0.07 0.05 0.04 0.03
0.01 0.01 0.02 0.02 0.03 0.03 0.04 0.05 0.05 0.05 0.05 0.05 0.06 0.07 0.08 0.10 0.12 0.12 0.14 0.15 0.16 0.16 0.16 0.17 0.16 0.14 0.13 0.10 0.09 0.08 0.08 0.07 0.07 0.07 0.06 0.05 0.04 0.04
0.01 0.01 0.01 0.02 0.02 0.03 0.04 0.04 0.05 0.05 0.06 0.07 0.07 0.07 0.08 0.10 0.11 0.11 0.12 0.13 0.14 0.15 0.15 0.14 0.14 0.14 0.15 0.15 0.14 0.12 0.09 0.08 0.07 0.06 0.05 0.05 0.05 0.05
0.01 0.01 0.02 0.02 0.03 0.03 0.04 0.05 0.05 0.06 0.07 0.07 0.08 0.08 0.08 0.09 0.09 0.10 0.10 0.12 0.12 0.13 0.13 0.14 0.16 0.17 0.16 0.16 0.14 0.12 0.10 0.09 0.08 0.07 0.06 0.05 0.04 0.03
0.02 0.02 0.02 0.02 0.02 0.03 0.04 0.05 0.05 0.06 0.06 0.07 0.08 0.08 0.08 0.09 0.09 0.09 0.09 0.10 0.12 0.13 0.14 0.16 0.17 0.16 0.15 0.13 0.13 0.12 0.11 0.10 0.08 0.07 0.07 0.05 0.03 0.02
MSLP
1011.06 1010.72 1010.39 1010.05 1009.69 1009.29 1008.82 1008.30 1007.73 1007.15 1006.60 1006.12 1005.76 1005.55 1005.52 1005.66 1005.97 1006.39 1006.90 1007.43 1007.95 1008.42 1008.82 1009.15 1009.42 1009.66 1009.90 1010.18 1010.52 1010.94 1011.45 1012.02 1012.65 1013.31 1013.96 1014.56 1015.10 1015.56
1011.48 1011.08 1010.69 1010.30 1009.88 1009.42 1008.90 1008.33 1007.71 1007.06 1006.44 1005.87 1005.42 1005.12 1004.99 1005.04 1005.26 1005.62 1006.07 1006.57 1007.08 1007.55 1007.95 1008.29 1008.58 1008.83 1009.08 1009.36 1009.71 1010.13 1010.64 1011.24 1011.89 1012.58 1013.27 1013.92 1014.51 1015.01
1011.99 1011.56 1011.15 1010.72 1010.28 1009.79 1009.25 1008.64 1007.99 1007.30 1006.62 1005.98 1005.43 1005.02 1004.77 1004.69 1004.78 1005.02 1005.36 1005.77 1006.21 1006.63 1007.00 1007.33 1007.61 1007.87 1008.13 1008.43 1008.79 1009.24 1009.77 1010.39 1011.07 1011.80 1012.53 1013.23 1013.87 1014.43
1012.50 1012.08 1011.66 1011.24 1010.80 1010.32 1009.78 1009.18 1008.52 1007.82 1007.10 1006.40 1005.77 1005.24 1004.85 1004.62 1004.54 1004.61 1004.80 1005.07 1005.39 1005.71 1006.02 1006.31 1006.57 1006.83 1007.10 1007.42 1007.81 1008.29 1008.86 1009.51 1010.23 1011.00 1011.77 1012.52 1013.21 1013.83
1012.93 1012.54 1012.15 1011.76 1011.35 1010.90 1010.41 1009.84 1009.21 1008.52 1007.80 1007.06 1006.35 1005.72 1005.19 1004.79 1004.53 1004.41 1004.41 1004.50 1004.66 1004.86 1005.08 1005.30 1005.53 1005.78 1006.07 1006.41 1006.84 1007.36 1007.96 1008.66 1009.42 1010.23 1011.04 1011.83 1012.57 1013.24
1013.25 1012.89 1012.54 1012.19 1011.83 1011.45 1011.01 1010.52 1009.94 1009.29 1008.58 1007.83 1007.08 1006.35 1005.70 1005.15 1004.71 1004.39 1004.19 1004.10 1004.09 1004.15 1004.25 1004.40 1004.59 1004.83 1005.13 1005.50 1005.96 1006.52 1007.17 1007.90 1008.70 1009.53 1010.38 1011.20 1011.98 1012.68
1013.43 1013.10 1012.78 1012.48 1012.19 1011.87 1011.50 1011.08 1010.57 1009.99 1009.31 1008.58 1007.81 1007.03 1006.29 1005.60 1005.01 1004.52 1004.13 1003.86 1003.69 1003.61 1003.61 1003.68 1003.83 1004.05 1004.35 1004.75 1005.24 1005.83 1006.51 1007.27 1008.09 1008.94 1009.81 1010.65 1011.45 1012.18
1013.46 1013.15 1012.86 1012.60 1012.35 1012.09 1011.79 1011.44 1011.01 1010.49 1009.88 1009.19 1008.43 1007.63 1006.83 1006.06 1005.35 1004.72 1004.19 1003.77 1003.46 1003.26 1003.16 1003.17 1003.27 1003.48 1003.78 1004.19 1004.70 1005.31 1006.01 1006.78 1007.61 1008.47 1009.33 1010.18 1010.98 1011.72
1013.36 1013.05 1012.77 1012.53 1012.30 1012.08 1011.84 1011.55 1011.19 1010.74 1010.19 1009.55 1008.83 1008.04 1007.23 1006.42 1005.64 1004.92 1004.29 1003.76 1003.35 1003.06 1002.89 1002.84 1002.91 1003.10 1003.40 1003.81 1004.32 1004.94 1005.64 1006.41 1007.23 1008.08 1008.93 1009.76 1010.56 1011.30
1013.16 1012.83 1012.53 1012.28 1012.05 1011.84 1011.63 1011.38 1011.07 1010.68 1010.20 1009.62 1008.95 1008.20 1007.41 1006.60 1005.80 1005.04 1004.36 1003.77 1003.30 1002.94 1002.72 1002.63 1002.67 1002.83 1003.12 1003.52 1004.03 1004.63 1005.32 1006.08 1006.88 1007.71 1008.54 1009.36 1010.15 1010.89
1012.89 1012.52 1012.18 1011.89 1011.64 1011.42 1011.20 1010.96 1010.68 1010.34 1009.91 1009.39 1008.78 1008.09 1007.34 1006.56 1005.77 1005.01 1004.31 1003.70 1003.19 1002.80 1002.55 1002.43 1002.44 1002.58 1002.84 1003.22 1003.71 1004.29 1004.96 1005.69 1006.47 1007.28 1008.11 1008.92 1009.71 1010.44
1012.56 1012.14 1011.76 1011.42 1011.12 1010.86 1010.62 1010.37 1010.10 1009.78 1009.39 1008.92 1008.36 1007.73 1007.03 1006.29 1005.53 1004.79 1004.10 1003.48 1002.96 1002.55 1002.28 1002.13 1002.11 1002.23 1002.46 1002.82 1003.28 1003.83 1004.46 1005.17 1005.94 1006.74 1007.56 1008.39 1009.19 1009.95
1012.20 1011.73 1011.30 1010.91 1010.56 1010.25 1009.97 1009.70 1009.42 1009.10 1008.73 1008.29 1007.78 1007.19 1006.53 1005.82 1005.10 1004.38 1003.70 1003.08 1002.55 1002.14 1001.84 1001.68 1001.63 1001.72 1001.92 1002.24 1002.67 1003.19 1003.80 1004.49 1005.25 1006.06 1006.90 1007.75 1008.59 1009.38
1011.83 1011.32 1010.84 1010.40 1010.00 1009.65 1009.33 1009.03 1008.73 1008.40 1008.04 1007.61 1007.11 1006.54 1005.90 1005.22 1004.51 1003.80 1003.13 1002.51 1001.98 1001.55 1001.24 1001.05 1000.99 1001.04 1001.22 1001.51 1001.90 1002.40 1002.99 1003.67 1004.42 1005.25 1006.11 1007.01 1007.89 1008.75
1011.46 1010.92 1010.41 1009.94 1009.50 1009.12 1008.76 1008.43 1008.11 1007.77 1007.39 1006.95 1006.45 1005.88 1005.24 1004.55 1003.84 1003.12 1002.44 1001.81 1001.27 1000.82 1000.50 1000.30 1000.21 1000.25 1000.40 1000.67 1001.04 1001.52 1002.09 1002.77 1003.53 1004.37 1005.27 1006.20 1007.14 1008.06
1011.10 1010.56 1010.03 1009.54 1009.10 1008.69 1008.32 1007.96 1007.62 1007.25 1006.85 1006.39 1005.87 1005.27 1004.60 1003.88 1003.14 1002.40 1001.69 1001.04 1000.48 1000.03 999.70 999.49 999.40 999.43 999.58 999.84 1000.20 1000.66 1001.23 1001.90 1002.66 1003.51 1004.43 1005.40 1006.39 1007.36
1010.77 1010.24 1009.72 1009.24 1008.79 1008.38 1008.00 1007.64 1007.28 1006.89 1006.46 1005.96 1005.39 1004.74 1004.03 1003.26 1002.47 1001.69 1000.95 1000.27 999.70 999.25 998.92 998.72 998.65 998.70 998.85 999.12 999.48 999.95 1000.51 1001.17 1001.93 1002.78 1003.70 1004.69 1005.69 1006.69
1010.48 1009.96 1009.47 1009.00 1008.57 1008.17 1007.80 1007.44 1007.06 1006.66 1006.19 1005.65 1005.03 1004.32 1003.54 1002.72 1001.87 1001.04 1000.26 999.57 998.99 998.55 998.24 998.08 998.04 998.13 998.33 998.62 999.00 999.47 1000.03 1000.68 1001.42 1002.24 1003.15 1004.12 1005.11 1006.11
1010.23 1009.73 1009.26 1008.81 1008.40 1008.03 1007.66 1007.31 1006.92 1006.50 1006.00 1005.42 1004.74 1003.97 1003.13 1002.24 1001.34 1000.46 999.66 998.95 998.39 997.97 997.71 997.60 997.63 997.78 998.03 998.37 998.79 999.27 999.83 1000.46 1001.16 1001.95 1002.81 1003.72 1004.68 1005.64
1010.00 1009.52 1009.06 1008.64 1008.24 1007.88 1007.52 1007.17 1006.78 1006.34 1005.81 1005.20 1004.47 1003.65 1002.76 1001.82 1000.87 999.97 999.15 998.45 997.91 997.54 997.34 997.30 997.41 997.64 997.96 998.36 998.82 999.33 999.88 1000.49 1001.15 1001.88 1002.67 1003.51 1004.40 1005.30
1009.79 1009.30 1008.84 1008.41 1008.01 1007.65 1007.30 1006.94 1006.55 1006.10 1005.56 1004.92 1004.16 1003.31 1002.38 1001.41 1000.45 999.53 998.72 998.04 997.54 997.23 997.10 997.15 997.34 997.66 998.06 998.52 999.03 999.56 1000.12 1000.70 1001.32 1001.98 1002.69 1003.46 1004.26 1005.09
1009.54 1009.02 1008.53 1008.07 1007.66 1007.28 1006.92 1006.56 1006.16 1005.71 1005.16 1004.52 1003.76 1002.91 1001.98 1001.01 1000.05 999.16 998.37 997.74 997.29 997.04 996.98 997.11 997.39 997.78 998.26 998.78 999.33 999.89 1000.44 1001.01 1001.58 1002.19 1002.82 1003.51 1004.23 1004.99
1009.23 1008.64 1008.09 1007.59 1007.13 1006.72 1006.33 1005.96 1005.56 1005.11 1004.59 1003.96 1003.24 1002.41 1001.52 1000.60 999.68 998.84 998.10 997.52 997.14 996.95 996.96 997.16 997.50 997.96 998.49 999.06 999.64 1000.22 1000.77 1001.32 1001.86 1002.41 1002.99 1003.61 1004.27 1004.96
Thickness
5568 5571 5574 5578 5579 5581 5583 5584 5585 5588 5594 5598 5600 5604 5603 5604 5604 5602 5603 5603 5602 5601 5599 5598 5597 5595 5593 5591 5588 5586 5585 5583 5581 5580 5579 5577 5576 5575
5557 5559 5561 5565 5567 5570 5572 5574 5576 5578 5583 5591 5590 5592 5592 5593 5594 5593 5593 5594 5594 5593 5592 5591 5589 5588 5586 5583 5581 5580 5578 5577 5574 5573 5572 5571 5569 5568
5545 5547 5550 5552 5555 5558 5560 5562 5563 5565 5570 5578 5578 5579 5579 5581 5582 5582 5583 5583 5585 5585 5584 5583 5581 5580 5578 5576 5574 5572 5571 5570 5568 5566 5564 5563 5562 5561
5533 5536 5538 5541 5543 5544 5546 5548 5550 5552 5555 5560 5563 5565 5567 5569 5570 5571 5572 5573 5574 5575 5575 5574 5573 5572 5570 5568 5566 5565 5564 5562 5561 5559 5558 5556 5555 5553
5519 5522 5524 5526 5529 5531 5532 5534 5536 5538 5541 5543 5548 5550 5552 5554 5555 5558 5560 5561 5563 5564 5563 5564 5564 5563 5561 5559 5558 5557 5556 5555 5554 5552 5550 5549 5547 5546
5505 5507 5509 5511 5513 5515 5517 5518 5520 5522 5525 5527 5530 5533 5535 5538 5540 5543 5545 5548 5550 5550 5551 5553 5553 5552 5551 5551 5550 5549 5548 5546 5545 5544 5542 5540 5539 5538
5489 5491 5493 5495 5497 5498 5500 5502 5503 5504 5507 5511 5515 5516 5519 5521 5525 5529 5531 5533 5535 5537 5538 5541 5541 5541 5541 5541 5541 5540 5539 5538 5536 5535 5534 5532 5531 5530
5472 5475 5476 5478 5480 5482 5483 5485 5487 5488 5490 5493 5498 5501 5505 5507 5509 5511 5514 5515 5520 5524 5524 5527 5528 5530 5531 5531 5532 5531 5530 5528 5527 5526 5525 5523 5522 5521
5454 5455 5458 5460 5460 5462 5465 5468 5469 5470 5472 5475 5481 5486 5489 5492 5493 5495 5498 5503 5510 5511 5509 5514 5515 5518 5520 5520 5520 5520 5519 5519 5518 5516 5515 5514 5513 5512
5436 5436 5438 5440 5441 5442 5445 5448 5451 5453 5456 5459 5463 5469 5472 5475 5478 5482 5485 5487 5490 5493 5495 5499 5501 5503 5506 5507 5508 5508 5508 5508 5507 5506 5505 5504 5503 5502
5420 5420 5420 5421 5423 5424 5426 5429 5434 5437 5440 5444 5448 5452 5456 5460 5462 5464 5466 5469 5474 5478 5479 5483 5486 5486 5488 5492 5495 5496 5496 5496 5496 5495 5494 5494 5493 5492
5405 5405 5404 5405 5406 5407 5408 5411 5416 5420 5424 5428 5432 5436 5439 5443 5446 5450 5453 5456 5459 5464 5467 5467 5470 5469 5470 5475 5479 5482 5482 5483 5484 5484 5483 5483 5482 5482
5388 5389 5389 5389 5390 5391 5392 5394 5399 5404 5408 5411 5415 5420 5424 5427 5431 5435 5439 5443 5446 5451 5456 5454 5456 5457 5458 5459 5462 5466 5469 5471 5471 5471 5471 5471 5472 5472
5371 5371 5372 5373 5375 5376 5378 5381 5384 5388 5391 5394 5399 5404 5408 5412 5416 5420 5425 5429 5434 5440 5443 5444 5445 5447 5446 5446 5448 5451 5454 5457 5458 5460 5460 5460 5460 5462
5355 5356 5357 5358 5360 5361 5362 5365 5368 5370 5373 5378 5383 5388 5393 5397 5401 5404 5409 5413 5418 5423 5428 5432 5436 5438 5438 5440 5440 5440 5441 5443 5446 5447 5448 5448 5450 5451
5341 5342 5343 5343 5343 5344 5347 5348 5350 5353 5356 5361 5366 5371 5376 5381 5385 5389 5394 5399 5402 5406 5411 5417 5422 5426 5427 5429 5431 5432 5433 5434 5436 5436 5436 5436 5438 5440
5329 5329 5328 5328 5328 5328 5330 5332 5334 5337 5340 5344 5349 5354 5359 5364 5369 5374 5378 5384 5389 5393 5396 5400 5405 5409 5413 5417 5418 5422 5422 5423 5425 5425 5425 5425 5427 5429
5316 5314 5313 5313 5313 5314 5315 5317 5318 5320 5323 5326 5331 5335 5340 5346 5351 5357 5362 5369 5376 5381 5384 5387 5390 5393 5395 5398 5405 5410 5412 5413 5414 5414 5416 5417 5417 5418
5302 5300 5299 5298 5298 5299 5300 5301 5303 5305 5307 5310 5314 5318 5323 5328 5334 5340 5347 5354 5361 5367 5371 5374 5379 5384 5389 5391 5390 5396 5401 5402 5402 5402 5405 5408 5409 5410
5288 5287 5286 5285 5285 5285 5286 5288 5289 5291 5293 5296 5300 5304 5308 5314 5320 5326 5333 5341 5348 5353 5357 5362 5369 5375 5382 5384 5382 5383 5388 5392 5393 5394 5395 5395 5396 5398
5277 5275 5274 5273 5273 5274 5275 5276 5278 5280 5283 5286 5290 5293 5297 5302 5308 5315 5322 5330 5337 5342 5348 5354 5359 5364 5367 5369 5371 5371 5374 5379 5384 5386 5386 5386 5386 5387
5266 5265 5264 5263 5263 5263 5265 5267 5269 5272 5275 5278 5282 5285 5288 5292 5298 5305 5312 5320 5327 5334 5339 5344 5347 5352 5356 5361 5363 5363 5364 5366 5370 5374 5377 5382 5384 5385
5257 5256 5256 5255 5255 5255 5257 5259 5262 5265 5268 5272 5275 5278 5281 5285 5291 5297 5304 5312 5318 5324 5329 5334 5338 5342 5346 5350 5352 5353 5354 5357 5359 5362 5364 5371 5377 5381